QPF
0.00 0.00 0.00 0.00 0.00 0.00 0.00 0.00 0.00 0.00 0.00 0.00 0.00 0.00 0.00 0.00 0.00 0.00 0.01 0.01 0.02 0.02 0.02 0.02 0.03 0.02 0.05
0.00 0.00 0.00 0.00 0.00 0.00 0.00 0.00 0.00 0.00 0.00 0.00 0.00 0.00 0.00 0.00 0.01 0.01 0.01 0.02 0.02 0.02 0.03 0.02 0.01 0.02 0.03
0.00 0.00 0.00 0.00 0.00 0.00 0.00 0.00 0.00 0.00 0.00 0.00 0.00 0.00 0.00 0.00 0.01 0.01 0.02 0.03 0.03 0.02 0.01 0.00 0.00 0.00 0.03
0.00 0.00 0.00 0.00 0.00 0.00 0.00 0.00 0.00 0.00 0.00 0.00 0.00 0.00 0.00 0.01 0.01 0.01 0.01 0.03 0.11 0.06 0.02 0.02 0.01 0.02 0.09
0.00 0.00 0.00 0.00 0.00 0.00 0.00 0.00 0.00 0.00 0.00 0.00 0.00 0.00 0.00 0.01 0.04 0.04 0.02 0.11 0.09 0.07 0.06 0.17 0.27 0.24 0.24
0.00 0.00 0.00 0.00 0.00 0.00 0.00 0.00 0.00 0.00 0.00 0.00 0.00 0.00 0.00 0.03 0.07 0.10 0.13 0.14 0.09 0.09 0.12 0.22 0.35 0.36 0.30
0.00 0.00 0.00 0.00 0.00 0.00 0.00 0.00 0.01 0.00 0.00 0.00 0.00 0.00 0.00 0.03 0.09 0.18 0.32 0.16 0.11 0.08 0.11 0.13 0.16 0.12 0.10
0.00 0.00 0.00 0.00 0.00 0.00 0.00 0.00 0.00 0.00 0.00 0.00 0.00 0.00 0.00 0.01 0.06 0.10 0.19 0.16 0.15 0.08 0.03 0.02 0.01 0.01 0.00
0.00 0.00 0.00 0.00 0.00 0.00 0.00 0.01 0.01 0.00 0.00 0.00 0.00 0.00 0.00 0.01 0.04 0.09 0.18 0.16 0.11 0.05 0.03 0.02 0.02 0.00 0.00
0.00 0.00 0.00 0.00 0.00 0.00 0.00 0.03 0.03 0.03 0.00 0.02 0.00 0.00 0.02 0.00 0.02 0.07 0.10 0.12 0.07 0.03 0.02 0.02 0.01 0.00 0.00
0.00 0.00 0.00 0.00 0.00 0.00 0.00 0.04 0.06 0.03 0.00 0.07 0.02 0.01 0.03 0.01 0.02 0.05 0.06 0.06 0.04 0.03 0.03 0.03 0.01 0.00 0.00
0.00 0.00 0.00 0.00 0.00 0.00 0.00 0.01 0.03 0.05 0.01 0.05 0.05 0.03 0.04 0.03 0.04 0.06 0.08 0.05 0.03 0.02 0.02 0.02 0.00 0.00 0.00
0.00 0.00 0.00 0.00 0.00 0.00 0.00 0.00 0.00 0.00 0.02 0.03 0.04 0.03 0.05 0.04 0.04 0.05 0.05 0.06 0.03 0.02 0.01 0.00 0.00 0.00 0.00
0.00 0.00 0.00 0.00 0.00 0.00 0.01 0.00 0.00 0.00 0.01 0.02 0.03 0.03 0.03 0.03 0.03 0.03 0.03 0.03 0.04 0.02 0.00 0.00 0.00 0.00 0.00
0.00 0.00 0.00 0.00 0.00 0.00 0.00 0.00 0.00 0.00 0.00 0.01 0.02 0.02 0.02 0.02 0.02 0.03 0.02 0.01 0.02 0.01 0.00 0.00 0.00 0.00 0.00
0.00 0.00 0.00 0.00 0.01 0.00 0.00 0.00 0.00 0.00 0.01 0.01 0.01 0.01 0.01 0.01 0.02 0.02 0.02 0.01 0.02 0.01 0.00 0.00 0.00 0.00 0.00
0.00 0.00 0.01 0.01 0.01 0.01 0.00 0.00 0.00 0.01 0.01 0.01 0.01 0.01 0.01 0.01 0.01 0.02 0.01 0.01 0.01 0.01 0.01 0.00 0.00 0.00 0.00
MSLP
1029.21 1028.62 1028.17 1027.63 1026.98 1026.57 1026.03 1025.28 1024.43 1023.74 1022.85 1021.98 1020.96 1020.10 1019.12 1017.99 1016.87 1015.66 1014.67 1013.32 1012.00 1010.93 1009.67 1008.76 1008.28 1007.60 1007.29
1029.57 1028.80 1028.22 1027.64 1027.13 1026.58 1025.95 1025.30 1024.42 1023.70 1022.92 1021.67 1020.57 1019.67 1018.79 1017.70 1016.44 1015.03 1013.91 1012.76 1011.40 1010.09 1008.67 1007.90 1007.29 1006.88 1006.74
1029.35 1028.80 1028.10 1027.50 1026.86 1026.37 1025.51 1024.73 1024.15 1023.59 1022.65 1021.46 1020.45 1019.59 1018.65 1017.42 1016.00 1014.63 1013.32 1012.13 1010.90 1009.38 1007.77 1007.24 1006.47 1006.15 1006.06
1029.31 1028.48 1028.08 1027.49 1027.00 1025.91 1024.98 1024.45 1023.55 1022.59 1021.73 1021.01 1020.07 1019.20 1018.34 1017.26 1016.16 1014.35 1011.77 1011.56 1010.55 1009.00 1008.28 1007.12 1004.37 1004.67 1005.75
1029.23 1028.55 1027.86 1027.14 1026.64 1026.00 1025.16 1024.00 1023.11 1022.28 1021.40 1021.11 1020.00 1019.04 1018.03 1017.06 1015.85 1014.00 1012.08 1011.33 1010.63 1009.91 1009.26 1008.38 1006.14 1005.66 1006.03
1029.02 1028.38 1027.64 1027.07 1026.51 1025.98 1025.20 1024.28 1022.52 1022.03 1021.43 1020.45 1020.01 1018.95 1018.07 1017.35 1016.11 1014.41 1012.24 1011.78 1011.58 1011.30 1010.63 1009.73 1009.01 1008.46 1008.51
1028.93 1028.36 1027.47 1026.87 1026.22 1025.46 1024.90 1024.47 1023.73 1022.76 1021.88 1020.70 1020.02 1019.02 1018.27 1017.51 1016.44 1015.13 1013.68 1013.07 1012.49 1012.10 1011.69 1011.33 1011.01 1010.88 1010.61
1028.64 1028.03 1027.40 1026.63 1026.32 1025.76 1024.86 1023.84 1023.27 1022.67 1022.07 1020.81 1020.05 1019.51 1018.41 1017.84 1016.91 1015.53 1014.02 1013.77 1013.52 1013.42 1013.08 1012.88 1012.68 1012.40 1012.28
1028.19 1027.90 1027.31 1026.69 1026.21 1025.46 1024.79 1024.17 1022.70 1022.11 1021.69 1021.23 1020.20 1019.55 1018.75 1018.12 1017.59 1016.51 1015.45 1015.06 1014.89 1014.79 1014.59 1014.38 1014.17 1013.96 1013.77
1028.27 1027.73 1027.16 1026.59 1026.05 1025.58 1025.12 1024.27 1023.46 1022.24 1021.98 1021.80 1020.53 1020.26 1019.12 1018.32 1018.11 1017.57 1016.90 1016.25 1016.02 1015.83 1015.63 1015.62 1015.50 1015.34 1015.31
1027.99 1027.18 1026.45 1026.21 1025.92 1025.53 1025.17 1024.55 1023.57 1022.86 1021.94 1021.91 1020.92 1020.50 1019.97 1019.02 1018.57 1018.28 1017.88 1017.39 1017.14 1016.91 1016.77 1016.68 1016.46 1016.27 1016.33
1027.72 1027.01 1026.42 1025.94 1025.53 1024.90 1024.33 1023.65 1023.07 1022.80 1022.11 1021.72 1021.15 1020.62 1020.12 1019.31 1018.86 1018.70 1018.46 1018.23 1017.99 1018.00 1017.95 1017.69 1017.32 1017.21 1017.20
1027.58 1026.96 1026.50 1025.69 1024.85 1024.05 1023.50 1023.02 1022.47 1022.04 1021.68 1021.23 1020.81 1020.28 1019.93 1019.39 1019.11 1018.95 1018.84 1019.01 1018.73 1018.74 1018.80 1018.66 1018.52 1018.41 1018.23
1027.88 1027.08 1026.19 1025.31 1024.54 1023.83 1023.32 1022.86 1022.13 1021.40 1021.16 1020.99 1020.55 1019.99 1019.43 1019.28 1019.22 1019.09 1019.14 1019.18 1019.43 1019.45 1019.49 1019.46 1019.35 1019.24 1019.17
1027.81 1026.86 1025.96 1025.11 1024.31 1023.64 1023.25 1023.04 1022.37 1021.74 1021.16 1020.77 1020.47 1020.19 1019.77 1019.53 1019.31 1019.32 1019.42 1019.56 1019.81 1019.89 1019.84 1019.96 1020.04 1019.91 1019.79
1027.83 1026.89 1026.06 1025.18 1024.43 1023.50 1023.17 1022.82 1022.34 1021.97 1021.52 1021.11 1020.72 1020.14 1019.90 1019.72 1019.56 1019.55 1019.73 1019.88 1020.11 1020.25 1020.27 1020.31 1020.49 1020.49 1020.28
1027.73 1026.92 1026.44 1025.48 1024.45 1023.59 1023.14 1022.71 1022.34 1022.13 1021.76 1021.52 1021.09 1020.64 1020.13 1019.81 1019.96 1019.82 1019.88 1020.16 1020.33 1020.53 1020.67 1020.60 1020.77 1020.95 1020.77
Thickness
5474 5470 5465 5461 5455 5449 5445 5442 5439 5435 5431 5428 5424 5421 5418 5416 5413 5410 5403 5400 5396 5393 5395 5396 5395 5396 5399
5457 5455 5450 5444 5441 5437 5432 5426 5423 5417 5413 5411 5408 5403 5397 5392 5387 5381 5374 5368 5367 5368 5373 5375 5380 5385 5388
5447 5440 5436 5431 5430 5423 5421 5418 5410 5400 5395 5392 5386 5378 5370 5364 5358 5353 5352 5349 5350 5357 5369 5374 5381 5383 5384
5432 5429 5422 5418 5412 5414 5414 5405 5402 5396 5388 5374 5369 5360 5348 5341 5337 5340 5351 5346 5349 5360 5366 5375 5395 5391 5384
5418 5415 5411 5408 5402 5398 5395 5395 5390 5377 5376 5355 5352 5341 5333 5329 5330 5337 5347 5348 5352 5356 5360 5365 5382 5385 5384
5406 5401 5398 5392 5387 5380 5376 5371 5379 5368 5355 5346 5325 5320 5316 5315 5321 5330 5343 5345 5345 5347 5353 5359 5362 5367 5369
5391 5384 5383 5376 5374 5370 5360 5350 5338 5331 5325 5320 5307 5304 5302 5305 5314 5323 5330 5334 5338 5341 5344 5347 5351 5353 5355
5378 5373 5366 5360 5351 5345 5342 5343 5327 5306 5294 5299 5293 5289 5294 5300 5307 5318 5328 5328 5330 5330 5332 5335 5338 5341 5343
5367 5357 5351 5343 5335 5331 5323 5315 5317 5302 5287 5282 5283 5284 5289 5296 5300 5308 5315 5318 5318 5319 5320 5322 5326 5328 5331
5357 5348 5339 5331 5320 5308 5299 5293 5285 5285 5274 5270 5274 5275 5285 5292 5294 5298 5304 5308 5308 5309 5311 5313 5314 5316 5317
5348 5343 5336 5323 5309 5295 5280 5270 5268 5262 5263 5260 5268 5271 5276 5285 5289 5291 5294 5297 5299 5300 5302 5303 5306 5308 5309
5337 5331 5323 5313 5301 5288 5275 5267 5261 5257 5257 5260 5265 5268 5272 5281 5286 5286 5288 5289 5291 5292 5293 5295 5298 5299 5300
5324 5316 5307 5299 5291 5281 5267 5262 5260 5259 5260 5263 5266 5269 5272 5278 5281 5283 5284 5282 5284 5285 5285 5286 5287 5289 5291
5306 5300 5294 5287 5277 5268 5261 5257 5258 5262 5263 5263 5266 5269 5274 5276 5277 5279 5279 5280 5277 5277 5278 5278 5279 5280 5281
5289 5287 5280 5272 5263 5258 5254 5250 5254 5258 5261 5263 5264 5265 5268 5271 5274 5274 5273 5273 5271 5271 5272 5272 5271 5272 5273
5275 5271 5263 5256 5251 5250 5248 5248 5251 5254 5256 5258 5260 5265 5267 5268 5268 5269 5268 5267 5266 5265 5265 5266 5265 5265 5267
5263 5256 5246 5241 5242 5243 5243 5246 5249 5250 5252 5251 5255 5260 5266 5270 5263 5264 5264 5261 5260 5259 5259 5260 5259 5258 5260